Regional Weather Roundup
Issued by NWS

Home | Current Version | Previous Version | Graphics & Text | Print | Product List | Glossary On
Versions: 1 2 3 4 5 6 7 8 9 10 11 12 13 14 15 16 17 18 19 20 21 22 23 24 25 26 27 28 29 30 31 32 33 34 35 36 37 38 39 40 41 42 43 44 45 46 47 48 49 50
000
ASUS43 KFSD 210410
RWRSD

WEATHER ROUNDUP FOR SOUTH DAKOTA
NATIONAL WEATHER SERVICE SIOUX FALLS SD
1000 PM CST THU NOV 20 2014

NOTE: "FAIR" INDICATES FEW OR NO CLOUDS BELOW 12,000 FEET WITH NO
SIGNIFICANT WEATHER AND/OR OBSTRUCTIONS TO VISIBILITY.


SDZ001>005-009-010-012>017-210500-
NORTHWEST AND NORTH CENTRAL SOUTH DAKOTA

CITY           SKY/WX    TMP DP  RH WIND       PRES   REMARKS
BUFFALO          N/A     20  17  88 S10       29.78F WCI   9
FAITH            N/A     15  12  88 S21       29.88F WCI  -2
MOBRIDGE       CLOUDY    23  19  85 S14G24    29.96F WCI  11
$$

SDZ012>016-024>037-041>051-057-063-072>074-210500-
SOUTHWEST AND SOUTH CENTRAL SOUTH DAKOTA

CITY           SKY/WX    TMP DP  RH WIND       PRES   REMARKS
RAPID CTY ARPT PTCLDY    21  16  81 E3        29.88F
PIERRE         PTCLDY    18  14  84 SE13      29.99F WCI   5
CUSTER         PTCLDY    33  18  53 W7        29.89S WCI  27
ELLSWORTH AFB  PTCLDY    22  18  83 NW5       29.86F WCI  16
PHILIP         PTCLDY    15  12  88 E5        29.94F WCI   8
PINE RIDGE     PTCLDY    26  20  77 W3        29.91F
SPEARFISH      FAIR      36  18  48 CALM      29.85S
WINNER         FAIR      24  17  74 S18       30.00F WCI  10
$$

SDZ004>011-016>023-039-040-210500-
NORTHEAST SOUTH DAKOTA

CITY           SKY/WX    TMP DP  RH WIND       PRES   REMARKS
ABERDEEN       PTCLDY     4  -1  80 S12       30.10F WCI -12
WATERTOWN      PTCLDY     4   1  88 S6        30.10F WCI  -7
SISSETON         N/A      1  -2  87 S7        30.13S WCI -12
$$

SDZ017-020-022-023-036>040-048>070-210500-
SOUTHEAST SOUTH DAKOTA

CITY           SKY/WX    TMP DP  RH WIND       PRES   REMARKS
SIOUX FALLS    PTCLDY     7   5  91 CALM      30.17F
HURON          CLOUDY    10   5  80 SE10      30.12F WCI  -4
CHAMBERLAIN    PTCLDY    17  14  88 SE10      30.05F WCI   5
MITCHELL       PTCLDY    11   8  88 SE7       30.15S WCI   0
YANKTON        MOCLDY    16  10  79 E6        30.19S WCI   7
$$

ABBREVIATIONS USED IN REMARKS
   TC - TEMPERATURE IN CELSIUS
  WCI - WIND CHILL INDEX
   HX - HEAT INDEX
  VSB - VISIBILITY



USA.gov is the U.S. government's official web portal to all federal, state and local government web resources and services.